QPF
0.00 0.00 0.00 0.00 0.00 0.00 0.00 0.00 0.00 0.00 0.00 0.00 0.00 0.00 0.00 0.00 0.00 0.00 0.00 0.00 0.00 0.00 0.00 0.00 0.00 0.00 0.00 0.00 0.00 0.00 0.00 0.00 0.00 0.00 0.00 0.00 0.00 0.00 0.00 0.00 0.00 0.00 0.00
0.04 0.00 0.00 0.00 0.00 0.00 0.00 0.00 0.00 0.00 0.00 0.00 0.00 0.00 0.00 0.00 0.00 0.00 0.00 0.00 0.00 0.00 0.00 0.00 0.00 0.00 0.00 0.00 0.00 0.00 0.00 0.00 0.00 0.00 0.00 0.00 0.00 0.00 0.00 0.00 0.00 0.00 0.00
0.10 0.06 0.02 0.00 0.00 0.00 0.00 0.00 0.00 0.00 0.00 0.00 0.00 0.00 0.00 0.00 0.00 0.00 0.00 0.00 0.00 0.00 0.00 0.00 0.00 0.00 0.00 0.00 0.00 0.00 0.00 0.00 0.00 0.00 0.00 0.00 0.00 0.00 0.00 0.00 0.00 0.00 0.00
0.04 0.05 0.05 0.04 0.03 0.02 0.00 0.00 0.00 0.00 0.00 0.00 0.00 0.00 0.00 0.00 0.00 0.00 0.00 0.00 0.00 0.00 0.00 0.00 0.00 0.00 0.00 0.00 0.00 0.00 0.00 0.00 0.00 0.00 0.00 0.00 0.00 0.00 0.00 0.00 0.00 0.00 0.00
0.01 0.03 0.06 0.07 0.08 0.06 0.04 0.03 0.02 0.01 0.00 0.00 0.00 0.00 0.00 0.00 0.00 0.00 0.00 0.00 0.00 0.00 0.00 0.00 0.00 0.00 0.00 0.00 0.00 0.00 0.00 0.00 0.00 0.00 0.00 0.00 0.00 0.00 0.00 0.00 0.00 0.00 0.00
0.00 0.01 0.03 0.05 0.06 0.06 0.07 0.06 0.05 0.03 0.01 0.00 0.00 0.00 0.00 0.00 0.00 0.00 0.00 0.00 0.00 0.00 0.00 0.00 0.00 0.00 0.00 0.00 0.00 0.00 0.00 0.00 0.00 0.00 0.00 0.00 0.00 0.00 0.00 0.00 0.00 0.00 0.00
0.00 0.00 0.00 0.02 0.03 0.05 0.06 0.07 0.07 0.06 0.05 0.04 0.03 0.01 0.00 0.00 0.00 0.00 0.00 0.00 0.00 0.00 0.00 0.00 0.00 0.00 0.00 0.00 0.00 0.00 0.00 0.00 0.00 0.00 0.00 0.00 0.00 0.00 0.00 0.00 0.00 0.00 0.00
0.00 0.00 0.00 0.00 0.01 0.01 0.03 0.05 0.06 0.05 0.05 0.07 0.07 0.04 0.01 0.00 0.00 0.00 0.00 0.00 0.00 0.00 0.00 0.00 0.00 0.00 0.00 0.00 0.00 0.00 0.00 0.00 0.00 0.00 0.00 0.00 0.00 0.00 0.00 0.00 0.00 0.00 0.00
0.00 0.00 0.00 0.00 0.00 0.00 0.01 0.01 0.02 0.03 0.04 0.05 0.08 0.08 0.04 0.01 0.01 0.00 0.00 0.00 0.00 0.00 0.00 0.00 0.00 0.00 0.00 0.00 0.00 0.00 0.00 0.00 0.00 0.00 0.00 0.00 0.00 0.00 0.00 0.00 0.00 0.00 0.00
0.00 0.00 0.00 0.00 0.00 0.00 0.00 0.00 0.01 0.01 0.02 0.03 0.05 0.07 0.07 0.06 0.06 0.03 0.01 0.00 0.01 0.01 0.01 0.01 0.00 0.00 0.00 0.00 0.00 0.00 0.00 0.00 0.00 0.00 0.00 0.00 0.00 0.00 0.00 0.00 0.00 0.00 0.00
0.00 0.00 0.00 0.00 0.00 0.00 0.00 0.00 0.00 0.00 0.00 0.01 0.01 0.02 0.02 0.02 0.03 0.03 0.04 0.03 0.02 0.02 0.03 0.04 0.02 0.01 0.01 0.00 0.00 0.00 0.02 0.00 0.00 0.00 0.00 0.00 0.00 0.00 0.00 0.00 0.00 0.00 0.00
0.00 0.00 0.00 0.00 0.00 0.00 0.00 0.00 0.00 0.00 0.00 0.00 0.00 0.00 0.00 0.01 0.01 0.01 0.01 0.00 0.00 0.00 0.00 0.00 0.01 0.01 0.01 0.01 0.01 0.03 0.03 0.01 0.00 0.00 0.00 0.00 0.00 0.00 0.00 0.00 0.00 0.00 0.00
0.00 0.00 0.00 0.00 0.00 0.00 0.00 0.00 0.00 0.00 0.00 0.00 0.00 0.00 0.00 0.00 0.01 0.01 0.01 0.01 0.01 0.00 0.00 0.00 0.00 0.00 0.01 0.01 0.02 0.03 0.03 0.02 0.02 0.00 0.00 0.00 0.00 0.00 0.00 0.00 0.00 0.00 0.00
0.00 0.00 0.00 0.00 0.00 0.00 0.00 0.00 0.00 0.00 0.00 0.00 0.00 0.00 0.00 0.00 0.00 0.00 0.01 0.01 0.00 0.00 0.00 0.00 0.00 0.00 0.00 0.00 0.00 0.01 0.01 0.01 0.00 0.00 0.00 0.00 0.00 0.00 0.00 0.00 0.00 0.00 0.00
0.00 0.00 0.00 0.00 0.00 0.00 0.00 0.00 0.00 0.00 0.00 0.00 0.00 0.00 0.00 0.00 0.00 0.00 0.01 0.01 0.01 0.01 0.00 0.00 0.00 0.00 0.00 0.00 0.00 0.00 0.00 0.00 0.00 0.00 0.00 0.00 0.00 0.00 0.00 0.00 0.00 0.00 0.00
0.00 0.00 0.00 0.00 0.00 0.00 0.00 0.00 0.00 0.00 0.00 0.00 0.00 0.00 0.00 0.00 0.00 0.00 0.00 0.00 0.00 0.01 0.01 0.00 0.00 0.00 0.00 0.00 0.00 0.00 0.00 0.00 0.00 0.00 0.00 0.00 0.00 0.00 0.00 0.00 0.00 0.00 0.00
0.00 0.00 0.00 0.00 0.00 0.00 0.00 0.00 0.00 0.00 0.00 0.00 0.00 0.00 0.00 0.00 0.00 0.00 0.00 0.00 0.00 0.00 0.00 0.00 0.00 0.00 0.00 0.00 0.00 0.00 0.00 0.00 0.00 0.00 0.00 0.00 0.00 0.00 0.00 0.00 0.00 0.00 0.00
0.00 0.00 0.00 0.00 0.00 0.00 0.00 0.00 0.00 0.00 0.00 0.00 0.00 0.00 0.00 0.00 0.00 0.00 0.00 0.00 0.00 0.00 0.00 0.00 0.00 0.00 0.00 0.00 0.00 0.00 0.00 0.00 0.00 0.00 0.00 0.00 0.00 0.00 0.00 0.00 0.00 0.00 0.00
0.00 0.00 0.00 0.00 0.00 0.00 0.00 0.00 0.00 0.00 0.00 0.00 0.00 0.00 0.00 0.00 0.00 0.00 0.00 0.00 0.00 0.00 0.00 0.00 0.00 0.00 0.00 0.00 0.00 0.00 0.00 0.00 0.00 0.00 0.00 0.00 0.00 0.00 0.00 0.00 0.00 0.00 0.00
0.00 0.00 0.00 0.00 0.00 0.00 0.00 0.00 0.00 0.00 0.00 0.00 0.00 0.00 0.00 0.00 0.00 0.00 0.00 0.00 0.00 0.00 0.00 0.00 0.00 0.00 0.00 0.00 0.00 0.00 0.00 0.00 0.00 0.00 0.00 0.00 0.00 0.00 0.00 0.00 0.00 0.00 0.00
0.00 0.00 0.00 0.00 0.00 0.00 0.00 0.00 0.00 0.00 0.00 0.00 0.00 0.00 0.00 0.00 0.00 0.00 0.00 0.00 0.00 0.00 0.00 0.00 0.00 0.00 0.00 0.00 0.00 0.00 0.00 0.00 0.00 0.00 0.01 0.00 0.00 0.00 0.00 0.00 0.00 0.00 0.00
0.00 0.00 0.00 0.00 0.00 0.00 0.00 0.00 0.00 0.00 0.00 0.00 0.00 0.00 0.00 0.00 0.00 0.00 0.00 0.00 0.00 0.00 0.00 0.00 0.00 0.00 0.00 0.00 0.00 0.00 0.00 0.00 0.00 0.00 0.00 0.00 0.00 0.00 0.00 0.00 0.00 0.00 0.00
0.00 0.00 0.00 0.00 0.00 0.00 0.00 0.00 0.00 0.00 0.00 0.00 0.00 0.00 0.00 0.00 0.00 0.00 0.00 0.00 0.00 0.00 0.00 0.00 0.00 0.00 0.00 0.00 0.00 0.00 0.00 0.00 0.00 0.00 0.00 0.00 0.00 0.00 0.00 0.00 0.00 0.00 0.00
0.00 0.00 0.00 0.00 0.00 0.00 0.00 0.00 0.00 0.00 0.00 0.00 0.00 0.00 0.00 0.00 0.00 0.00 0.00 0.00 0.00 0.00 0.00 0.00 0.00 0.00 0.00 0.00 0.00 0.00 0.01 0.00 0.00 0.00 0.00 0.00 0.00 0.00 0.00 0.00 0.00 0.00 0.00
0.00 0.00 0.00 0.00 0.00 0.00 0.00 0.00 0.00 0.00 0.00 0.00 0.00 0.00 0.00 0.00 0.00 0.00 0.00 0.00 0.00 0.00 0.00 0.00 0.00 0.00 0.00 0.00 0.00 0.00 0.00 0.00 0.00 0.00 0.00 0.00 0.00 0.00 0.00 0.00 0.00 0.00 0.00
0.00 0.00 0.00 0.00 0.00 0.00 0.00 0.00 0.00 0.00 0.00 0.00 0.00 0.00 0.00 0.00 0.00 0.00 0.00 0.01 0.01 0.00 0.01 0.00 0.00 0.00 0.00 0.00 0.00 0.01 0.01 0.01 0.00 0.00 0.00 0.00 0.00 0.00 0.00 0.00 0.00 0.00 0.00
MSLP
1016.14 1016.05 1015.91 1015.87 1015.60 1015.48 1015.36 1015.67 1015.94 1015.86 1015.65 1015.67 1015.85 1015.77 1015.61 1015.50 1015.38 1015.15 1014.74 1014.96 1015.02 1015.18 1015.39 1015.63 1015.90 1015.99 1015.97 1015.98 1016.06 1016.16 1016.26 1016.31 1016.35 1016.40 1016.45 1016.51 1016.59 1016.66 1016.72 1016.78 1016.83 1016.84 1016.80
1016.68 1016.38 1016.04 1015.72 1015.76 1015.52 1015.14 1015.14 1015.19 1015.39 1015.49 1015.16 1015.09 1015.10 1015.06 1014.96 1014.76 1014.63 1014.33 1014.11 1014.36 1014.40 1014.62 1014.79 1014.94 1015.07 1015.13 1015.16 1015.24 1015.35 1015.43 1015.49 1015.56 1015.63 1015.71 1015.77 1015.83 1015.91 1015.99 1016.02 1016.06 1016.11 1016.08
1017.91 1017.09 1016.43 1016.10 1015.53 1015.32 1015.42 1015.37 1015.09 1015.23 1015.34 1015.00 1014.80 1014.62 1014.42 1014.34 1014.28 1014.24 1014.12 1013.79 1013.44 1013.62 1013.54 1013.72 1013.92 1014.09 1014.25 1014.37 1014.46 1014.54 1014.66 1014.74 1014.73 1014.66 1014.65 1014.76 1014.92 1015.01 1015.06 1015.07 1015.14 1015.25 1015.28
1018.99 1018.56 1017.48 1016.83 1015.83 1015.54 1015.18 1015.08 1015.12 1014.98 1014.38 1014.17 1014.01 1013.90 1013.66 1013.31 1013.16 1013.24 1013.36 1013.28 1013.00 1012.62 1012.42 1012.71 1012.75 1012.89 1013.12 1013.28 1013.38 1013.49 1013.54 1013.62 1013.68 1013.70 1013.73 1013.70 1013.73 1013.87 1014.00 1014.11 1014.10 1014.09 1014.17
1019.60 1019.19 1018.83 1018.32 1017.30 1016.37 1015.64 1015.45 1015.23 1014.74 1014.50 1014.14 1013.36 1013.12 1013.07 1012.85 1012.63 1012.35 1012.13 1012.04 1012.11 1012.15 1012.01 1011.61 1012.01 1012.07 1012.07 1012.22 1012.32 1012.43 1012.50 1012.59 1012.60 1012.65 1012.72 1012.78 1012.86 1012.87 1012.81 1012.80 1012.86 1012.90 1012.89
1020.03 1019.83 1019.44 1019.12 1018.49 1017.94 1017.04 1016.17 1015.48 1015.04 1014.17 1013.63 1013.11 1012.35 1011.94 1011.77 1011.58 1011.38 1011.23 1011.04 1010.88 1010.83 1010.87 1010.82 1010.81 1010.92 1011.28 1011.21 1011.25 1011.26 1011.26 1011.42 1011.56 1011.68 1011.74 1011.72 1011.63 1011.64 1011.74 1011.73 1011.68 1011.73 1011.77
1020.23 1020.27 1020.04 1019.79 1019.32 1018.86 1018.63 1017.93 1016.82 1015.64 1014.74 1014.37 1013.80 1012.79 1011.62 1011.28 1010.95 1010.72 1010.63 1010.38 1009.98 1009.67 1009.51 1009.44 1009.54 1009.51 1009.35 1009.99 1009.93 1009.96 1010.10 1010.32 1010.49 1010.63 1010.80 1010.95 1010.98 1010.95 1010.77 1010.61 1010.73 1010.88 1010.78
1020.74 1020.44 1020.50 1020.22 1020.16 1019.68 1019.26 1018.88 1018.39 1017.44 1016.03 1015.22 1014.28 1013.40 1011.80 1010.36 1009.35 1009.21 1009.16 1009.15 1008.86 1008.80 1008.71 1008.30 1008.04 1007.98 1008.04 1008.17 1008.26 1009.17 1009.49 1009.82 1009.92 1009.94 1010.02 1010.09 1010.14 1010.10 1010.11 1010.09 1009.96 1009.85 1009.95
1021.11 1020.99 1020.88 1020.66 1020.39 1020.39 1020.23 1019.82 1019.49 1018.73 1017.69 1016.63 1015.71 1014.97 1013.16 1010.76 1009.85 1008.60 1007.63 1007.82 1007.91 1007.82 1008.09 1008.02 1007.72 1007.47 1007.40 1007.35 1007.72 1007.87 1008.57 1008.78 1008.86 1009.09 1009.18 1009.21 1009.26 1009.29 1009.27 1009.22 1009.27 1009.26 1009.13
1021.38 1021.28 1021.26 1021.12 1020.91 1020.78 1020.58 1020.48 1020.21 1019.56 1018.99 1018.36 1016.97 1016.32 1015.45 1012.67 1012.12 1010.58 1009.69 1009.63 1009.97 1010.43 1008.83 1007.65 1007.69 1007.62 1007.17 1006.81 1006.83 1007.16 1007.53 1007.82 1008.08 1008.25 1008.42 1008.57 1008.63 1008.62 1008.57 1008.46 1008.25 1008.05 1007.97
1021.85 1021.95 1021.59 1021.42 1021.26 1020.97 1020.87 1020.61 1020.16 1019.84 1019.62 1019.54 1019.19 1017.62 1016.30 1015.62 1013.59 1013.35 1012.34 1011.82 1011.35 1011.22 1010.14 1010.04 1009.24 1009.09 1008.37 1007.82 1007.67 1007.76 1007.94 1007.28 1007.48 1007.34 1007.78 1008.16 1008.29 1008.16 1007.99 1007.83 1007.74 1007.45 1007.07
1022.13 1022.32 1021.97 1021.78 1021.57 1021.32 1021.05 1020.80 1020.31 1019.91 1019.85 1019.49 1018.92 1018.80 1018.06 1017.67 1016.73 1015.71 1014.50 1013.48 1013.15 1011.89 1010.75 1010.22 1009.92 1009.31 1008.66 1007.99 1008.26 1008.74 1009.02 1007.63 1008.03 1007.19 1007.31 1007.72 1008.03 1008.06 1007.78 1007.39 1006.95 1006.55 1006.41
1022.77 1022.80 1022.48 1022.01 1021.64 1021.46 1021.33 1020.79 1020.38 1020.26 1020.16 1019.71 1019.05 1018.25 1018.02 1017.78 1017.50 1016.73 1016.12 1014.94 1014.41 1013.29 1012.08 1011.43 1010.51 1010.02 1009.24 1009.01 1008.98 1009.12 1008.73 1009.26 1007.90 1007.74 1007.65 1007.51 1007.76 1007.48 1007.31 1006.87 1006.36 1006.02 1005.50
1023.31 1023.30 1022.86 1022.47 1022.12 1021.92 1021.58 1021.24 1020.65 1020.41 1020.32 1019.93 1019.47 1018.94 1018.35 1017.44 1016.92 1016.62 1016.35 1015.88 1014.68 1013.90 1012.75 1012.00 1011.43 1010.90 1010.76 1010.44 1009.85 1009.24 1008.43 1008.22 1007.42 1007.68 1007.63 1007.43 1006.91 1006.85 1006.52 1006.14 1005.68 1005.16 1004.96
1023.65 1023.59 1023.31 1022.97 1022.59 1022.29 1021.91 1021.63 1021.26 1020.87 1020.76 1020.29 1019.71 1019.28 1018.75 1017.94 1017.55 1017.12 1017.04 1016.80 1016.06 1014.45 1013.30 1012.92 1012.53 1011.95 1011.37 1010.88 1010.53 1009.83 1008.80 1008.03 1007.76 1007.48 1007.42 1007.44 1007.24 1007.03 1006.67 1006.23 1005.85 1005.33 1004.36
1024.26 1023.93 1023.60 1023.25 1022.86 1022.52 1022.37 1022.09 1021.80 1021.36 1021.24 1020.81 1020.20 1019.84 1019.30 1018.57 1018.00 1017.29 1017.62 1017.12 1016.38 1015.83 1014.50 1014.06 1012.84 1011.93 1011.50 1010.87 1010.24 1009.89 1009.08 1008.47 1007.66 1008.03 1007.88 1007.58 1007.12 1006.96 1006.54 1006.37 1005.72 1004.82 1004.10
1024.54 1024.22 1023.89 1023.47 1023.11 1022.88 1022.70 1022.47 1022.33 1021.88 1021.71 1021.25 1020.72 1020.14 1019.54 1019.06 1018.40 1017.80 1017.17 1016.73 1016.09 1015.64 1014.81 1013.71 1013.04 1012.26 1011.60 1011.02 1010.30 1009.68 1009.01 1008.64 1008.18 1007.70 1007.26 1007.01 1006.93 1007.06 1006.71 1006.12 1005.31 1004.21 1003.36
1024.68 1024.34 1023.95 1023.64 1023.36 1023.14 1022.86 1022.65 1022.64 1022.45 1022.02 1021.45 1020.88 1020.37 1019.84 1019.21 1018.79 1018.15 1017.86 1017.34 1016.42 1015.83 1014.66 1013.29 1012.91 1012.13 1011.49 1011.00 1010.59 1010.25 1009.58 1008.82 1008.44 1007.99 1007.67 1007.12 1006.69 1006.83 1006.37 1005.48 1004.80 1003.76 1003.14
1024.72 1024.40 1024.12 1023.86 1023.58 1023.35 1023.11 1022.99 1023.14 1022.81 1022.28 1021.69 1021.02 1020.46 1019.91 1019.29 1018.74 1018.52 1018.39 1017.58 1017.04 1016.08 1015.31 1014.31 1013.05 1012.39 1011.44 1010.92 1010.36 1010.17 1009.90 1009.44 1009.03 1008.30 1007.65 1006.88 1006.36 1006.16 1005.88 1005.40 1004.53 1003.51 1002.55
1024.73 1024.42 1024.17 1023.92 1023.67 1023.36 1023.19 1023.56 1023.49 1023.13 1022.43 1021.68 1021.00 1020.39 1019.72 1019.22 1019.04 1018.90 1018.55 1018.17 1017.36 1017.06 1016.15 1015.09 1013.72 1012.71 1011.97 1011.14 1010.59 1010.27 1009.79 1009.61 1009.04 1008.23 1007.35 1006.76 1006.00 1005.58 1005.49 1005.17 1004.52 1003.78 1002.88
1024.81 1024.46 1024.15 1023.94 1023.73 1023.46 1023.74 1024.27 1023.97 1023.34 1022.52 1021.51 1020.71 1019.93 1019.47 1019.48 1019.48 1019.65 1019.31 1018.82 1018.57 1017.88 1017.04 1015.77 1014.49 1013.43 1012.61 1011.81 1011.63 1011.41 1010.85 1010.15 1009.29 1008.48 1006.98 1006.57 1006.03 1005.63 1005.01 1005.08 1004.57 1004.07 1003.18
1024.79 1024.49 1024.19 1023.94 1023.69 1023.48 1024.27 1024.37 1024.23 1023.56 1022.48 1021.50 1020.40 1019.79 1019.56 1019.43 1019.32 1019.56 1019.45 1019.31 1019.14 1018.46 1017.56 1016.55 1015.44 1014.35 1013.43 1013.03 1012.55 1012.21 1011.64 1010.76 1009.28 1008.60 1007.66 1006.74 1006.43 1005.58 1005.12 1005.13 1005.00 1004.28 1003.44
1024.84 1024.50 1024.22 1023.97 1023.69 1023.57 1024.02 1024.12 1024.25 1023.57 1022.34 1021.36 1020.59 1020.15 1019.98 1019.76 1019.73 1019.37 1019.01 1018.69 1018.32 1017.97 1017.46 1016.73 1015.56 1014.79 1013.61 1013.34 1012.90 1012.18 1011.72 1011.04 1009.97 1009.42 1009.08 1006.91 1006.69 1005.71 1005.12 1004.96 1004.92 1004.37 1003.61
1024.88 1024.52 1024.22 1023.93 1023.75 1023.62 1023.97 1024.26 1024.18 1023.09 1022.22 1021.48 1020.99 1020.58 1020.18 1019.64 1019.28 1018.91 1018.41 1017.87 1017.44 1016.85 1016.33 1015.77 1015.07 1014.24 1013.59 1012.96 1012.66 1011.97 1011.25 1010.45 1009.65 1009.21 1008.90 1007.08 1006.03 1005.24 1005.14 1005.05 1005.07 1004.58 1003.98
1024.72 1024.43 1024.11 1023.86 1023.62 1023.48 1024.02 1024.20 1023.96 1023.30 1022.55 1021.86 1021.34 1020.67 1020.09 1019.35 1018.89 1018.61 1018.12 1017.32 1016.58 1015.84 1015.31 1014.83 1014.34 1013.74 1013.01 1012.35 1011.95 1011.24 1010.55 1009.93 1008.76 1008.42 1007.91 1007.21 1005.86 1005.37 1005.15 1005.20 1005.30 1004.96 1004.45
1024.53 1024.21 1023.92 1023.70 1023.50 1023.40 1023.66 1023.97 1024.03 1023.59 1022.67 1021.79 1021.02 1020.24 1019.56 1019.06 1018.54 1018.28 1017.79 1016.86 1015.86 1015.22 1014.66 1013.97 1013.44 1012.70 1011.99 1011.07 1010.63 1010.24 1009.77 1009.13 1008.63 1007.85 1007.48 1007.09 1006.45 1006.04 1005.30 1005.21 1005.28 1004.97 1004.61
Thickness
5715 5716 5717 5717 5719 5721 5722 5720 5717 5718 5719 5718 5715 5715 5715 5715 5716 5718 5721 5723 5722 5720 5718 5715 5712 5711 5711 5710 5709 5708 5707 5706 5705 5704 5703 5702 5701 5700 5698 5696 5695 5694 5694
5705 5708 5712 5715 5714 5715 5718 5718 5718 5717 5716 5718 5719 5717 5716 5716 5717 5717 5718 5720 5722 5721 5719 5717 5714 5712 5711 5711 5710 5709 5707 5706 5705 5704 5703 5703 5701 5700 5698 5697 5695 5695 5695
5692 5696 5702 5707 5710 5711 5711 5711 5712 5711 5711 5713 5715 5716 5716 5717 5717 5716 5716 5719 5721 5722 5721 5719 5717 5714 5712 5710 5709 5708 5707 5705 5705 5705 5705 5704 5702 5701 5700 5699 5697 5696 5694
5678 5682 5689 5694 5700 5702 5705 5707 5707 5707 5712 5713 5714 5715 5716 5719 5720 5719 5716 5717 5719 5721 5724 5721 5719 5717 5714 5713 5712 5711 5709 5709 5707 5706 5705 5705 5704 5703 5702 5700 5699 5699 5698
5666 5669 5672 5676 5682 5688 5695 5696 5698 5702 5702 5705 5711 5712 5713 5715 5717 5718 5720 5719 5719 5718 5718 5721 5719 5717 5716 5715 5713 5712 5711 5709 5708 5708 5706 5705 5704 5704 5704 5704 5703 5702 5702
5653 5655 5657 5661 5665 5668 5674 5681 5687 5691 5698 5701 5704 5709 5713 5715 5717 5718 5719 5719 5720 5720 5720 5719 5718 5718 5716 5714 5712 5711 5711 5710 5709 5707 5706 5706 5707 5707 5705 5704 5705 5704 5703
5641 5641 5643 5644 5648 5651 5651 5654 5664 5675 5683 5685 5684 5693 5704 5709 5712 5715 5715 5716 5719 5721 5722 5722 5719 5718 5719 5717 5715 5714 5711 5708 5708 5707 5705 5703 5702 5702 5704 5706 5704 5703 5703
5625 5628 5627 5629 5629 5633 5634 5636 5640 5646 5659 5667 5669 5675 5683 5698 5713 5715 5716 5715 5717 5718 5719 5722 5723 5723 5721 5718 5718 5712 5708 5702 5701 5701 5700 5699 5699 5699 5699 5700 5702 5702 5701
5609 5610 5611 5612 5613 5613 5613 5616 5617 5622 5632 5642 5651 5651 5660 5680 5687 5705 5712 5713 5713 5711 5712 5708 5709 5715 5715 5715 5710 5710 5707 5703 5700 5696 5695 5696 5695 5694 5693 5694 5693 5693 5695
5596 5595 5593 5594 5595 5595 5596 5595 5597 5602 5605 5609 5624 5630 5637 5644 5654 5666 5681 5680 5679 5674 5682 5698 5695 5696 5703 5705 5707 5706 5703 5702 5698 5693 5689 5686 5686 5686 5686 5686 5689 5691 5691
5578 5576 5578 5577 5576 5577 5576 5578 5580 5582 5583 5584 5585 5601 5611 5618 5628 5625 5635 5647 5650 5655 5651 5657 5662 5671 5675 5678 5683 5682 5679 5684 5686 5688 5678 5675 5674 5676 5678 5680 5681 5683 5687
5564 5560 5560 5559 5558 5557 5557 5557 5560 5563 5563 5566 5570 5571 5576 5578 5585 5592 5602 5614 5617 5634 5642 5647 5642 5648 5654 5660 5660 5658 5653 5661 5665 5671 5669 5664 5662 5663 5666 5670 5673 5676 5677
5552 5548 5547 5547 5546 5542 5538 5539 5540 5539 5539 5544 5550 5557 5558 5556 5559 5565 5569 5578 5585 5599 5613 5618 5620 5623 5629 5635 5638 5641 5644 5637 5637 5642 5650 5650 5647 5651 5652 5656 5661 5664 5669
5541 5538 5537 5536 5533 5529 5524 5521 5521 5520 5518 5521 5525 5530 5535 5542 5545 5547 5548 5552 5564 5570 5584 5593 5596 5599 5599 5604 5612 5618 5626 5624 5630 5627 5628 5628 5632 5633 5640 5644 5648 5654 5656
5532 5528 5527 5525 5523 5520 5518 5514 5511 5509 5505 5505 5507 5508 5511 5517 5521 5522 5522 5523 5527 5543 5559 5565 5565 5572 5577 5579 5583 5590 5600 5606 5608 5610 5605 5608 5610 5612 5617 5622 5628 5633 5643
5521 5520 5518 5517 5515 5513 5509 5506 5503 5501 5497 5496 5497 5495 5495 5497 5498 5502 5497 5500 5503 5505 5515 5524 5540 5548 5554 5557 5563 5567 5574 5580 5586 5584 5583 5587 5592 5595 5600 5601 5611 5622 5626
5514 5513 5512 5511 5509 5506 5502 5499 5494 5493 5488 5487 5486 5486 5486 5484 5485 5486 5487 5485 5487 5487 5490 5507 5506 5515 5522 5530 5538 5542 5549 5555 5561 5565 5571 5570 5571 5573 5578 5586 5595 5605 5611
5510 5508 5508 5506 5504 5500 5497 5494 5488 5484 5481 5480 5479 5477 5474 5474 5472 5471 5468 5467 5469 5468 5475 5487 5485 5489 5493 5499 5504 5510 5518 5525 5532 5535 5542 5544 5548 5551 5558 5569 5577 5587 5590
5505 5504 5502 5499 5497 5494 5491 5487 5479 5476 5474 5472 5472 5470 5468 5466 5463 5457 5450 5450 5448 5450 5452 5459 5466 5465 5471 5473 5479 5481 5486 5492 5496 5504 5510 5518 5526 5532 5537 5544 5554 5565 5573
5500 5499 5496 5493 5490 5488 5485 5476 5470 5466 5465 5464 5462 5459 5457 5453 5446 5438 5433 5428 5428 5423 5425 5432 5441 5444 5446 5450 5452 5457 5462 5461 5469 5475 5482 5492 5501 5506 5512 5519 5528 5536 5546
5494 5493 5490 5487 5483 5480 5474 5466 5460 5457 5455 5455 5452 5449 5443 5433 5423 5412 5407 5402 5394 5393 5394 5401 5410 5415 5417 5421 5418 5420 5425 5433 5443 5445 5458 5467 5473 5479 5488 5492 5499 5505 5518
5489 5486 5484 5480 5477 5473 5463 5455 5448 5445 5443 5441 5441 5435 5424 5415 5406 5393 5382 5373 5365 5364 5366 5369 5376 5381 5383 5381 5384 5386 5389 5398 5418 5418 5426 5444 5438 5451 5461 5464 5466 5476 5488
5483 5480 5477 5473 5470 5465 5455 5447 5438 5434 5432 5429 5424 5417 5408 5396 5383 5374 5367 5361 5357 5353 5350 5353 5359 5358 5363 5356 5358 5364 5364 5369 5380 5385 5386 5415 5411 5425 5434 5440 5441 5450 5461
5476 5473 5469 5465 5460 5456 5447 5437 5428 5426 5421 5414 5405 5397 5389 5381 5370 5363 5361 5359 5356 5354 5352 5351 5352 5353 5350 5347 5342 5344 5348 5354 5361 5364 5367 5390 5396 5408 5412 5417 5419 5426 5435
5470 5467 5463 5459 5454 5447 5437 5427 5419 5413 5406 5399 5389 5381 5373 5367 5360 5354 5353 5355 5356 5354 5350 5347 5344 5343 5343 5342 5338 5338 5339 5342 5354 5357 5357 5362 5377 5385 5392 5396 5399 5404 5411
5465 5461 5457 5452 5446 5438 5427 5417 5406 5399 5396 5391 5382 5372 5363 5354 5351 5347 5346 5348 5349 5347 5344 5342 5340 5340 5340 5342 5340 5339 5339 5341 5344 5352 5351 5352 5359 5362 5376 5378 5380 5386 5393